Weather in Petrovsk-Zabaykalskiy

Russia / Zabaykalsky Krai     51°16′29″N   108°50′48″E
temp.,
°C
wind,
m/s
gust,
m/s
humid.,
%
clouds,
%
prec.,
mm/h
press.,
hPa
HPBL,
m
19 january, tue
tue1900:00−22ssw229887 0.0 102320
03:00−22s129745 0.0 102120
06:00−21s22960 0.0 101820
09:00−20ssw229325 0.0 101821
12:00−16ssw238633 0.0 1015135
15:00−10wsw257862 0.0 1012353
18:00−15w1291100 0.0 101220
21:00−16wsw1189100 0.0 101420
20 january, wed
wed2000:00−14wsw0197100 0.1 101420
03:00−14w1197100 0.9 101520
06:00−15w1297100 0.3 101735
09:00−19wsw119999 0.5 102020
12:00−14sw129183 0.0 1020146
15:00−11wsw128283 0.0 1017394
18:00−14w119067 0.0 101920
21:00−17wsw239783 0.1 102428
21 january, thu
thu2100:00−18wnw4148643 0.0 1028370
03:00−23w229322 0.0 103123
06:00−25w12900 0.0 103220
09:00−26sw11890 0.0 103420
12:00−19wsw12810 0.0 1033181
15:00−17w25800 0.0 1031432
18:00−22w12910 0.0 103120
21:00−25wsw11950 0.0 103320
22 january, fri
fri2200:00−25s11990 0.0 103120
03:00−23sse119843 0.0 103020
06:00−22se1198100 0.0 102720
09:00−23ese119593 0.0 102620
12:00−17se018239 0.0 1024128
15:00−13ssw127568 0.0 1021351
18:00−17s118967 0.0 102020
21:00−20ssw119333 0.0 102120
23 january, sat
sat2300:00−19s129633 0.0 102020
03:00−18sse119663 0.0 101920
06:00−18s1193100 0.0 101820
09:00−18s1192100 0.0 101920
12:00−13s1284100 0.0 1017115
15:00−7sse127591 0.0 1013249
18:00−12se118936 0.0 101321
21:00−14wnw128951 0.0 101420